Regional Weather Roundup
Issued by NWS

Home | Current Version | Previous Version | Graphics & Text | Print | Product List | Glossary On
Versions: 1 2 3 4 5 6 7 8 9 10 11 12 13 14 15 16 17 18 19 20 21 22 23 24 25 26 27 28 29 30 31 32 33 34 35 36 37 38 39 40 41 42 43 44 45 46 47 48 49 50
000
ASUS45 KTFX 191319
RWRMT
MONTANA HOURLY WEATHER ROUNDUP
NATIONAL WEATHER SERVICE GREAT FALLS MT
719 AM MDT SAT APR 19 2014

NOTE: "FAIR" INDICATES FEW OR NO CLOUDS BELOW 12000 FEET WITH NO
SIGNIFICANT WEATHER AND/OR OBSTRUCTIONS TO VISIBILITY.

* THESE STATIONS ARE NOT UNDER NWS QUALITY CONTROL. THEY DO NOT
   REPORT WEATHER SUCH AS PRECIPITATION OR FOG.

MTZ001>007-043-191400-
WEST OF THE DIVIDE
CITY           SKY/WX    TMP DP  RH WIND       PRES   REMARKS
KALISPELL      CLEAR     21  19  92 CALM      29.98S
MISSOULA       CLEAR     27  21  78 CALM      30.03S
BUTTE          PTCLDY    21  14  74 CALM      30.00S
MULLAN PASS    CLEAR     25  18  75 S8        29.90F WCI  16
* ESSEX        N/A       25  24  96 N/A        N/A
* LINCOLN      N/A       25  18  75 NW2        N/A
* LOOKOUT PASS N/A       22  21  96 SE2        N/A
* POLSON       N/A       29  20  69 N/A        N/A
* SEELEY LAKE  N/A       19  17  92 N/A        N/A
* THOMP F APT  CLEAR     30  12  47 NE1G8      N/A
* YAAK HILL    N/A       29  26  89 N/A        N/A
$$

MTZ008-052>055-191400-
SOUTHWEST MONTANA
CITY           SKY/WX    TMP DP  RH WIND       PRES   REMARKS
BOZEMAN        PTCLDY    21  16  81 SE8       30.00S WCI  11
DILLON         PTCLDY    28  12  51 SW12      30.00S WCI  18
W YELLOWSTONE  N/A       22  20  92 N/A        N/A
* THREE FORKS  PTCLDY    27  16  63 N/A        N/A
* BOULDER HILL N/A       33   6  32 S10G16     N/A   WCI  25
* MONIDA PASS  N/A       23  12  63 W2         N/A
* RAYNOLDS PAS N/A       25  12  58 SW8        N/A   WCI  16
* WHITEHALL    N/A       28  11  49 NW4        N/A
* WISE RIVER   N/A       20  14  77 SW3        N/A
$$

MTZ009>010-012-014-046-048-049-054-191400-
EAST SLOPES AND CENTRAL MONTANA
CITY           SKY/WX    TMP DP  RH WIND       PRES   REMARKS
CUT BANK       CLEAR     34  21  59 W15       29.89R WCI  24
GREAT FALLS    CLEAR     34  18  52 SW14      29.92S WCI  24
HELENA         PTCLDY    27  16  63 NW5       29.98S WCI  21
MALMSTROM AFB  CLEAR     30  18  61 S8        29.91R WCI  22
* CONRAD       CLEAR     30  21  69 S5         N/A   WCI  25
* DEARBORN     N/A       42  12  29 S4G10      N/A
* EAST GLACIER N/A       34  19  54 W2G11      N/A
* MONARCH      N/A       32   4  30 S8         N/A   WCI  25
* PENDROY      N/A       33  19  56 NW7G14     N/A   WCI  27
* ROGERS PASS  N/A       30  15  54 SE11G18    N/A   WCI  21
* SAINT MARY   N/A       35  21  57 SW8G19     N/A   WCI  28
* SWEET GRASS  N/A       34  26  73 W8         N/A   WCI  27
* WHITE SULPH  N/A       26  11  53 E4         N/A
$$

MTZ011-013-016-021-035-040-045-047-050-051-191400-
NORTH CENTRAL MONTANA
CITY           SKY/WX    TMP DP  RH WIND       PRES   REMARKS
HAVRE          CLEAR     30  28  92 SW10      29.93S WCI  21
LEWISTOWN      CLEAR     30  16  56 SW9       29.94S WCI  22
* CHINOOK      CLEAR     36  30  79 W9        29.94R WCI  29
* FORT BENTON  CLEAR     36  19  50 SW6       29.95S WCI  31
* MALTA APT    CLEAR     37  27  67 W8        29.90R WCI  31
* CHESTER      N/A       30  27  89 NW2        N/A
* DENTON       N/A       33  17  52 SW10G15    N/A   WCI  25
* GEYSER       N/A       30  13  49 N/A        N/A
* JUDITH GAP   N/A       35  10  35 NW6        N/A   WCI  30
* LOMA         N/A       34  20  57 SW3        N/A
$$

MTZ017>020-022>027-061-062-191400-
NORTHEAST MONTANA
CITY           SKY/WX    TMP DP  RH WIND       PRES   REMARKS
GLASGOW        MOCLDY    37  34  89 W18       29.89R WCI  27
GLENDIVE       CLEAR     39  27  62 W15       29.90R WCI  31
JORDAN         PTCLDY    34  25  70 W7        29.91R WCI  28
SIDNEY         CLEAR     39  34  82 W18G28    29.85R WCI  30
WOLF POINT     CLOUDY    39  34  82 W14G28    29.88R WCI  31
* BEAVER HILL  N/A       39  24  55 SW19G26    N/A   WCI  29
* CIRCLE       N/A       40  34  79 W9G23      N/A   WCI  34
* LINDSAY DVD  N/A       36  24  62 W19G25     N/A   WCI  25
* NAVAJO       N/A       37  34  89 W22G29     N/A   WCI  26
* SACO         N/A       37  33  85 SW13G18    N/A   WCI  29
* SCOBEY APT   PTCLDY    37  34  89 W18G25    29.79R WCI  27
$$

MTZ028>042-056>058-191400-
SOUTHCENTRAL AND SOUTHEAST MONTANA
CITY           SKY/WX    TMP DP  RH WIND       PRES   REMARKS
BAKER          CLEAR     37  25  62 W12       29.92R WCI  29
BILLINGS       FAIR      36  16  44 W8        29.98R WCI  30
LIVINGSTON     PTCLDY    34  16  48 SW13      29.97R WCI  25
MILES CITY     CLEAR     39  23  53 W7        29.94R WCI  34
* EKALAKA APT  CLEAR     37  18  46 SW8       29.93R WCI  31
* LAUREL APT   CLEAR     36   9  32 N/A        N/A
* ROUNDUP APT  PTCLDY    37  10  33 N/A        N/A
* HYSHAM       N/A       37  13  37 SW1        N/A
* LAME DEER    N/A       36  14  40 W8         N/A   WCI  30
* REED POINT   N/A       32  14  47 SE2        N/A
* ROSCOE HILL  N/A       33  11  40 SE10       N/A   WCI  25
$$

REGIONAL REPORTS...DAKOTAS
CITY           SKY/WX    TMP DP  RH WIND       PRES   REMARKS
WILLISTON      PTCLDY    39  34  82 W28G35    29.78R WCI  27
DICKINSON      CLEAR     39  25  57 W17       29.83R WCI  30
CROSBY         LGT RAIN  39  39 100 W23G29    29.73R WCI  28
TIOGA          CLOUDY    37  37 100 W20G25    29.78R WCI  27
WATFORD CITY   CLOUDY    37  34  89 W20       29.81R WCI  27
BISMARCK       CLEAR     39  32  76 SW10      29.87R WCI  32
GRAND FORKS    PTCLDY    45  37  74 S12       29.75R
FARGO          CLOUDY    48  39  71 S5        29.80R
BUFFALO SD     PTCLDY    36  23  59 W9        29.89R WCI  29
RAPID CITY     MOCLDY    43  18  37 W8        29.99R
$$

REGIONAL REPORTS...WYOMING/IDAHO/WASHINGTON
CITY           SKY/WX    TMP DP  RH WIND       PRES   REMARKS
GILLETTE       CLEAR     34  27  76 SW8       30.02R WCI  27
SHERIDAN       PTCLDY    36  28  73 CALM      30.01R
CODY           PTCLDY    30  25  82 S6        29.99R WCI  24
YELLOWSTONE LA PTCLDY    18  16  92 W3        30.06R
SALMON         CLEAR     23  18  81 CALM      30.05R
MULLAN PASS    CLEAR     25  18  75 S8        29.90S WCI  16
SAND POINT     CLEAR     32  32 100 N7        29.97S WCI  25
SPOKANE        FAIR      34  28  79 NE5       29.92F WCI  29
$$

REGIONAL REPORTS...ALBERTA
CITY           SKY/WX    TMP DP  RH WIND       PRES   REMARKS
CALGARY        PTCLDY    28  27  96 SW6       29.83S WCI  21
LETHBRIDGE     PTCLDY    28  25  89 S9        29.87S WCI  19
MEDICINE HAT   CLOUDY    34  32  92 W7        29.92R WCI  28
EDMONTON       FAIR      25  23  92 S2        29.80F
WATERTON GATE  N/A       36  23  59 SW13G21    N/A   WCI  27
CARDSTON       N/A       32  25  75 S5         N/A   WCI  27
MILK RIVER     N/A       25  23  92 W6         N/A   WCI  18
$$

REGIONAL REPORTS...SASKATCHEWAN
CITY           SKY/WX    TMP DP  RH WIND       PRES   REMARKS
SWIFT CURRENT  CLOUDY    32  30  92 NW16G25   29.82R WCI  21
REGINA         CLOUDY    32  30  92 NW21G30   29.71R WCI  20
VAL MARIE      N/A       36  32  85 NW17G25    N/A   WCI  26
ASSINIBOIA     N/A       34  30  85 NW20G26    N/A   WCI  23
CORONACH       N/A       36  32  85 W24G32     N/A   WCI  24

$$




USA.gov is the U.S. government's official web portal to all federal, state and local government web resources and services.